Location: Centerville
(32.8776°N, 96.6203°W)
Time: 00:35:35
(UTC+00:00)

Cosmos 407 Rocket - Pass Details

Date: 17 June 2021
Orbit: 744 x 786 km, 74.1° (Epoch: 01 August)

Event Time Altitude Azimuth Distance (km) Brightness Sun altitude
Rises 02:06:29 0° 350° (N) 3,266 7.5 -6.2°
Reaches altitude 10° 02:09:00 10° 357° (N) 2,329 6.5 -6.6°
Maximum altitude 02:14:03 44° 70° (ENE) 1,053 4.0 -7.5°
Drops below altitude 10° 02:19:01 10° 142° (SE) 2,291 5.4 -8.4°
Enters shadow 02:19:16 - 143° (SE) 2,384 5.4 -8.4°
